TimePST,TemperatureF,Dew PointF,Humidity,Sea Level PressureIn,VisibilityMPH,Wind Direction,Wind SpeedMPH,Gust SpeedMPH,PrecipitationIn,Events,Conditions,WindDirDegrees,DateUTC
12:58 AM,16.5,16.5,100,30.50,10.0,NNE,6.9,-,N/A,,Clear,20,2013-01-03 08:58:00
1:58 AM,16.2,16.2,100,30.49,10.0,NNE,5.8,-,N/A,,Clear,20,2013-01-03 09:58:00
2:58 AM,14.7,14.7,100,30.50,10.0,North,8.1,-,N/A,,Clear,10,2013-01-03 10:58:00
3:58 AM,14.5,14.5,100,30.48,10.0,North,5.8,-,N/A,,Clear,10,2013-01-03 11:58:00
4:23 AM,15.8,15.8,100,30.35,6.0,North,3.5,-,N/A,,Clear,10,2013-01-03 12:23:00
4:28 AM,15.8,15.8,100,30.35,3.0,North,3.5,-,N/A,,Clear,10,2013-01-03 12:28:00
4:38 AM,15.8,15.8,100,30.35,6.0,North,4.6,-,N/A,,Clear,10,2013-01-03 12:38:00
4:48 AM,14.0,14.0,100,30.35,10.0,NNE,5.8,-,N/A,,Clear,20,2013-01-03 12:48:00
4:58 AM,12.7,12.7,100,30.48,10.0,NNE,5.8,-,N/A,,Clear,20,2013-01-03 12:58:00
5:58 AM,14.5,14.5,100,30.47,10.0,NNE,8.1,-,N/A,,Clear,30,2013-01-03 13:58:00
6:23 AM,14.0,14.0,100,30.34,9.0,NE,3.5,-,N/A,,Clear,40,2013-01-03 14:23:00
6:28 AM,14.0,14.0,100,30.34,1.5,NE,3.5,-,N/A,,Clear,40,2013-01-03 14:28:00
6:33 AM,14.0,14.0,100,30.34,0.8,NE,2.3,-,N/A,,Clear,40,2013-01-03 14:33:00
6:36 AM,12.2,12.2,100,30.34,0.5,NE,2.3,-,N/A,Fog-Snow,Light Freezing Fog,50,2013-01-03 14:36:00
6:45 AM,10.4,10.4,100,30.34,0.5,NE,2.3,-,N/A,Fog,Light Freezing Fog,50,2013-01-03 14:45:00
6:50 AM,8.6,8.6,100,30.34,0.5,ENE,2.3,-,N/A,Fog,Light Freezing Fog,60,2013-01-03 14:50:00
6:55 AM,8.6,8.6,100,30.33,0.5,ENE,2.3,-,N/A,Fog,Light Freezing Fog,70,2013-01-03 14:55:00
6:58 AM,9.3,9.3,100,30.47,0.5,East,2.3,-,0.00,Fog,Light Freezing Fog,80,2013-01-03 14:58:00
7:03 AM,8.6,8.6,100,30.33,0.2,East,2.3,-,N/A,Fog,Light Freezing Fog,90,2013-01-03 15:03:00
7:08 AM,8.6,8.6,100,30.33,0.2,ESE,2.3,-,N/A,Fog,Light Freezing Fog,110,2013-01-03 15:08:00
7:13 AM,8.6,8.6,100,30.34,0.2,East,2.3,-,N/A,Fog,Light Freezing Fog,100,2013-01-03 15:13:00
7:28 AM,8.6,8.6,100,30.34,0.2,Calm,Calm,-,N/A,Fog,Light Freezing Fog,0,2013-01-03 15:28:00
7:32 AM,8.6,8.6,100,30.34,0.2,Calm,Calm,-,N/A,Fog-Snow,Light Freezing Fog,0,2013-01-03 15:32:00
7:37 AM,6.8,6.8,100,30.34,0.2,Calm,Calm,-,N/A,Fog-Snow,Light Freezing Fog,0,2013-01-03 15:37:00
7:42 AM,6.8,6.8,100,30.34,0.2,SSE,1.2,-,N/A,Fog,Light Freezing Fog,160,2013-01-03 15:42:00
7:58 AM,9.7,9.7,100,30.48,0.2,Calm,Calm,-,0.00,Fog,Light Freezing Fog,0,2013-01-03 15:58:00
8:38 AM,10.4,10.4,100,30.34,0.2,Calm,Calm,-,N/A,Fog,Light Freezing Fog,0,2013-01-03 16:38:00
8:58 AM,11.8,11.8,100,30.49,0.2,WNW,1.2,-,N/A,Fog,Light Freezing Fog,290,2013-01-03 16:58:00
9:08 AM,12.2,12.2,100,30.35,0.2,Calm,Calm,-,N/A,Fog,Light Freezing Fog,0,2013-01-03 17:08:00
9:18 AM,14.0,14.0,100,30.34,0.2,Calm,Calm,-,N/A,Fog,Light Freezing Fog,0,2013-01-03 17:18:00
9:23 AM,14.0,14.0,100,30.35,0.5,North,2.3,-,N/A,Fog,Light Freezing Fog,10,2013-01-03 17:23:00
9:28 AM,14.0,14.0,100,30.35,1.2,North,2.3,-,N/A,,Clear,10,2013-01-03 17:28:00
9:33 AM,14.0,14.0,100,30.35,7.0,North,2.3,-,N/A,,Clear,360,2013-01-03 17:33:00
9:58 AM,14.9,14.9,100,30.49,10.0,East,2.3,-,N/A,,Scattered Clouds,80,2013-01-03 17:58:00
10:27 AM,15.8,15.8,100,30.34,10.0,ENE,3.5,-,N/A,Snow,Light Snow,60,2013-01-03 18:27:00
10:55 AM,17.6,17.6,100,30.33,10.0,NE,5.8,-,N/A,,Clear,40,2013-01-03 18:55:00
10:58 AM,18.1,18.1,100,30.46,10.0,NE,5.8,-,0.00,,Clear,40,2013-01-03 18:58:00
11:01 AM,17.6,17.6,100,30.33,10.0,NE,5.8,-,N/A,Snow,Light Snow,40,2013-01-03 19:01:00
11:16 AM,17.6,17.6,100,30.32,10.0,NNE,4.6,-,N/A,,Clear,30,2013-01-03 19:16:00
11:58 AM,19.8,19.8,100,30.43,10.0,NNE,5.8,-,0.00,,Clear,30,2013-01-03 19:58:00
12:58 PM,20.3,20.3,100,30.42,10.0,North,3.5,-,N/A,,Clear,360,2013-01-03 20:58:00
12:59 PM,19.4,19.4,100,30.29,10.0,North,4.6,-,N/A,,Clear,360,2013-01-03 20:59:00
1:07 PM,19.4,19.4,100,30.29,10.0,NNE,5.8,-,N/A,,Clear,20,2013-01-03 21:07:00
1:38 PM,21.2,21.2,100,30.27,10.0,NE,5.8,-,N/A,,Clear,40,2013-01-03 21:38:00
1:52 PM,21.2,21.2,100,30.26,10.0,NNE,6.9,-,N/A,,Clear,30,2013-01-03 21:52:00
1:58 PM,21.4,21.4,100,30.39,10.0,NNE,5.8,-,0.00,,Clear,30,2013-01-03 21:58:00
2:58 PM,21.0,21.0,100,30.39,10.0,NNE,5.8,-,N/A,,Clear,30,2013-01-03 22:58:00
3:17 PM,21.2,21.2,100,30.27,10.0,North,4.6,-,N/A,,Clear,360,2013-01-03 23:17:00
3:27 PM,19.4,19.4,100,30.26,10.0,North,4.6,-,N/A,,Clear,360,2013-01-03 23:27:00
3:35 PM,19.4,19.4,100,30.27,10.0,North,4.6,-,N/A,,Clear,360,2013-01-03 23:35:00
3:46 PM,21.2,21.2,100,30.26,10.0,NNW,4.6,-,N/A,,Clear,340,2013-01-03 23:46:00
3:48 PM,21.2,21.2,100,30.26,10.0,NNW,4.6,-,N/A,,Clear,340,2013-01-03 23:48:00
3:58 PM,20.3,20.3,100,30.39,10.0,North,3.5,-,N/A,,Clear,350,2013-01-03 23:58:00
3:59 PM,21.2,21.2,100,30.26,10.0,NNW,4.6,-,N/A,,Clear,340,2013-01-03 23:59:00
4:09 PM,21.2,21.2,100,30.26,10.0,North,4.6,-,N/A,,Clear,350,2013-01-04 00:09:00
4:28 PM,19.4,19.4,100,30.26,10.0,NNW,5.8,-,N/A,Snow,Light Snow,340,2013-01-04 00:28:00
4:49 PM,17.6,17.6,100,30.27,10.0,NW,4.6,-,N/A,,Clear,320,2013-01-04 00:49:00
4:58 PM,18.0,18.0,100,30.40,10.0,NW,5.8,-,0.00,,Clear,320,2013-01-04 00:58:00
5:05 PM,14.0,14.0,100,30.26,10.0,NNW,4.6,-,N/A,Snow,Light Snow,340,2013-01-04 01:05:00
5:15 PM,17.6,17.6,100,30.26,10.0,North,4.6,-,N/A,,Clear,360,2013-01-04 01:15:00
5:25 PM,14.0,14.0,100,30.27,10.0,Calm,Calm,-,N/A,Snow,Light Snow,0,2013-01-04 01:25:00
5:28 PM,14.0,14.0,100,30.27,10.0,Calm,Calm,-,N/A,,Clear,0,2013-01-04 01:28:00
5:58 PM,14.5,14.5,100,30.40,10.0,SSE,2.3,-,N/A,,Clear,150,2013-01-04 01:58:00
6:08 PM,14.0,14.0,100,30.27,10.0,South,2.3,-,N/A,Snow,Light Snow,190,2013-01-04 02:08:00
6:30 PM,10.4,10.4,100,30.27,10.0,WSW,5.8,-,N/A,,Clear,240,2013-01-04 02:30:00
6:43 PM,12.2,12.2,100,30.27,10.0,NW,2.3,-,N/A,Snow,Light Snow,310,2013-01-04 02:43:00
6:58 PM,12.0,12.0,100,30.42,10.0,Calm,Calm,-,N/A,,Clear,0,2013-01-04 02:58:00
6:59 PM,14.0,14.0,100,30.27,10.0,Calm,Calm,-,N/A,,Clear,0,2013-01-04 02:59:00
7:58 PM,14.9,14.9,100,30.40,10.0,Calm,Calm,-,N/A,,Clear,0,2013-01-04 03:58:00
8:18 PM,14.0,14.0,100,30.26,2.5,ESE,1.2,-,N/A,,Clear,120,2013-01-04 04:18:00
8:23 PM,14.0,14.0,100,30.26,3.0,ENE,1.2,-,N/A,,Clear,70,2013-01-04 04:23:00
8:28 PM,14.0,14.0,100,30.26,2.5,Calm,Calm,-,N/A,,Clear,0,2013-01-04 04:28:00
8:33 PM,14.0,14.0,100,30.26,6.0,Calm,Calm,-,N/A,,Clear,0,2013-01-04 04:33:00
8:48 PM,14.0,14.0,100,30.26,1.5,ESE,3.5,-,N/A,,Clear,120,2013-01-04 04:48:00
8:53 PM,12.2,12.2,100,30.26,1.2,SE,2.3,-,N/A,,Clear,140,2013-01-04 04:53:00
8:58 PM,12.2,12.2,100,30.41,1.5,SE,2.3,-,N/A,,Clear,130,2013-01-04 04:58:00
9:08 PM,14.0,14.0,100,30.27,1.2,Calm,Calm,-,N/A,,Clear,0,2013-01-04 05:08:00
9:13 PM,14.0,14.0,100,30.27,1.5,Calm,Calm,-,N/A,,Clear,0,2013-01-04 05:13:00
9:18 PM,14.0,14.0,100,30.27,5.0,SE,2.3,-,N/A,,Clear,130,2013-01-04 05:18:00
9:49 PM,12.2,12.2,100,30.28,10.0,North,-9999.0,-,N/A,Snow,Light Snow,0,2013-01-04 05:49:00
9:58 PM,13.1,13.1,100,30.43,7.0,SSW,3.5,-,0.00,Snow,Light Snow,200,2013-01-04 05:58:00
10:17 PM,14.0,14.0,100,30.29,10.0,South,3.5,-,N/A,,Clear,180,2013-01-04 06:17:00
10:58 PM,15.8,15.8,100,30.42,10.0,North,-9999.0,-,0.00,,Mostly Cloudy,0,2013-01-04 06:58:00
11:44 PM,15.8,15.8,100,30.29,10.0,SSE,5.8,-,N/A,Snow,Light Snow,150,2013-01-04 07:44:00
11:57 PM,15.8,15.8,100,30.30,10.0,SSE,6.9,-,N/A,,Overcast,150,2013-01-04 07:57:00
11:58 PM,16.5,16.5,100,30.43,10.0,North,-9999.0,-,0.00,,Overcast,0,2013-01-04 07:58:00
11:59 PM,15.8,15.8,100,30.30,10.0,SE,5.8,-,N/A,,Light Freezing Drizzle,140,2013-01-04 07:59:00